Year,Month,Day,Hour,Minute,Value (Times are PST for temperature in C)
2012,06,08,00,00,7.00
2012,06,08,00,01,7.00
2012,06,08,00,02,7.00
2012,06,08,00,03,7.00
2012,06,08,00,04,7.00
2012,06,08,00,05,7.00
2012,06,08,00,06,7.00
2012,06,08,00,07,7.00
2012,06,08,00,08,7.00
2012,06,08,00,09,7.00
2012,06,08,00,10,7.00
2012,06,08,00,11,7.00
2012,06,08,00,12,7.00
2012,06,08,00,13,7.00
2012,06,08,00,14,7.00
2012,06,08,00,15,7.00
2012,06,08,00,16,7.00
2012,06,08,00,17,7.00
2012,06,08,00,18,7.00
2012,06,08,00,19,7.00
2012,06,08,00,20,7.00
2012,06,08,00,21,7.00
2012,06,08,00,22,7.00
2012,06,08,00,23,7.00
2012,06,08,00,24,7.00
2012,06,08,00,25,7.00
2012,06,08,00,26,7.00
2012,06,08,00,27,7.00
2012,06,08,00,28,7.00
2012,06,08,00,29,7.00
2012,06,08,00,30,7.00
2012,06,08,00,31,7.00
2012,06,08,00,32,7.00
2012,06,08,00,33,7.00
2012,06,08,00,34,7.00
2012,06,08,00,35,7.00
2012,06,08,00,36,7.00
2012,06,08,00,37,7.00
2012,06,08,00,38,7.00
2012,06,08,00,39,7.00
2012,06,08,00,40,7.00
2012,06,08,00,41,7.00
2012,06,08,00,42,7.00
2012,06,08,00,43,7.00
2012,06,08,00,44,6.90
2012,06,08,00,45,6.90
2012,06,08,00,46,6.90
2012,06,08,00,47,6.90
2012,06,08,00,48,6.90
2012,06,08,00,49,7.00
2012,06,08,00,50,7.00
2012,06,08,00,51,7.00
2012,06,08,00,52,7.00
2012,06,08,00,53,7.00
2012,06,08,00,54,7.00
2012,06,08,00,55,7.00
2012,06,08,00,56,7.00
2012,06,08,00,57,7.10
2012,06,08,00,58,7.10
2012,06,08,00,59,7.10
2012,06,08,01,00,7.10
2012,06,08,01,01,7.10
2012,06,08,01,02,7.10
2012,06,08,01,03,7.10
2012,06,08,01,04,7.10
2012,06,08,01,05,7.10
2012,06,08,01,06,7.10
2012,06,08,01,07,7.10
2012,06,08,01,08,7.20
2012,06,08,01,09,7.20
2012,06,08,01,10,7.20
2012,06,08,01,11,7.20
2012,06,08,01,12,7.20
2012,06,08,01,13,7.10
2012,06,08,01,14,7.10
2012,06,08,01,15,7.10
2012,06,08,01,16,7.10
2012,06,08,01,17,7.10
2012,06,08,01,18,7.10
2012,06,08,01,19,7.10
2012,06,08,01,20,7.10
2012,06,08,01,21,7.00
2012,06,08,01,22,7.00
2012,06,08,01,23,7.00
2012,06,08,01,24,6.90
2012,06,08,01,25,6.90
2012,06,08,01,26,6.90
2012,06,08,01,27,6.90
2012,06,08,01,28,6.90
2012,06,08,01,29,6.80
2012,06,08,01,30,6.80
2012,06,08,01,31,6.80
2012,06,08,01,32,6.80
2012,06,08,01,33,6.80
2012,06,08,01,34,6.80
2012,06,08,01,35,6.80
2012,06,08,01,36,6.80
2012,06,08,01,37,6.80
2012,06,08,01,38,6.70
2012,06,08,01,39,6.70
2012,06,08,01,40,6.70
2012,06,08,01,41,6.70
2012,06,08,01,42,6.70
2012,06,08,01,43,6.70
2012,06,08,01,44,6.70
2012,06,08,01,45,6.70
2012,06,08,01,46,6.70
2012,06,08,01,47,6.70
2012,06,08,01,48,6.70
2012,06,08,01,49,6.70
2012,06,08,01,50,6.60
2012,06,08,01,51,6.60
2012,06,08,01,52,6.60
2012,06,08,01,53,6.60
2012,06,08,01,54,6.60
2012,06,08,01,55,6.60
2012,06,08,01,56,6.60
2012,06,08,01,57,6.60
2012,06,08,01,58,6.60
2012,06,08,01,59,6.60
2012,06,08,02,00,6.60
2012,06,08,02,01,6.60
2012,06,08,02,02,6.60
2012,06,08,02,03,6.60
2012,06,08,02,04,6.60
2012,06,08,02,05,6.60
2012,06,08,02,06,6.60
2012,06,08,02,07,6.50
2012,06,08,02,08,6.50
2012,06,08,02,09,6.50
2012,06,08,02,10,6.50
2012,06,08,02,11,6.40
2012,06,08,02,12,6.40
2012,06,08,02,13,6.40
2012,06,08,02,14,6.40
2012,06,08,02,15,6.40
2012,06,08,02,16,6.40
2012,06,08,02,17,6.40
2012,06,08,02,18,6.40
2012,06,08,02,19,6.40
2012,06,08,02,20,6.40
2012,06,08,02,21,6.40
2012,06,08,02,22,6.40
2012,06,08,02,23,6.40
2012,06,08,02,24,6.40
2012,06,08,02,25,6.40
2012,06,08,02,26,6.40
2012,06,08,02,27,6.40
2012,06,08,02,28,6.40
2012,06,08,02,29,6.40
2012,06,08,02,30,6.40
2012,06,08,02,31,6.40
2012,06,08,02,32,6.40
2012,06,08,02,33,6.40
2012,06,08,02,34,6.40
2012,06,08,02,35,6.40
2012,06,08,02,36,6.40
2012,06,08,02,37,6.40
2012,06,08,02,38,6.40
2012,06,08,02,39,6.40
2012,06,08,02,40,6.40
2012,06,08,02,41,6.40
2012,06,08,02,42,6.40
2012,06,08,02,43,6.40
2012,06,08,02,44,6.40
2012,06,08,02,45,6.40
2012,06,08,02,46,6.40
2012,06,08,02,47,6.40
2012,06,08,02,48,6.40
2012,06,08,02,49,6.40
2012,06,08,02,50,6.40
2012,06,08,02,51,6.40
2012,06,08,02,52,6.40
2012,06,08,02,53,6.40
2012,06,08,02,54,6.40
2012,06,08,02,55,6.30
2012,06,08,02,56,6.30
2012,06,08,02,57,6.30
2012,06,08,02,58,6.30
2012,06,08,02,59,6.40
2012,06,08,03,00,6.40
2012,06,08,03,01,6.30
2012,06,08,03,02,6.40
2012,06,08,03,03,6.40
2012,06,08,03,04,6.40
2012,06,08,03,05,6.40
2012,06,08,03,06,6.40
2012,06,08,03,07,6.40
2012,06,08,03,08,6.40
2012,06,08,03,09,6.30
2012,06,08,03,10,6.40
2012,06,08,03,11,6.40
2012,06,08,03,12,6.30
2012,06,08,03,13,6.40
2012,06,08,03,14,6.40
2012,06,08,03,15,6.40
2012,06,08,03,16,6.40
2012,06,08,03,17,6.40
2012,06,08,03,18,6.40
2012,06,08,03,19,6.40
2012,06,08,03,20,6.40
2012,06,08,03,21,6.40
2012,06,08,03,22,6.40
2012,06,08,03,23,6.40
2012,06,08,03,24,6.40
2012,06,08,03,25,6.40
2012,06,08,03,26,6.40
2012,06,08,03,27,6.40
2012,06,08,03,28,6.40
2012,06,08,03,29,6.40
2012,06,08,03,30,6.40
2012,06,08,03,31,6.30
2012,06,08,03,32,6.30
2012,06,08,03,33,6.30
2012,06,08,03,34,6.30
2012,06,08,03,35,6.40
2012,06,08,03,36,6.40
2012,06,08,03,37,6.40
2012,06,08,03,38,6.40
2012,06,08,03,39,6.40
2012,06,08,03,40,6.40
2012,06,08,03,41,6.40
2012,06,08,03,42,6.40
2012,06,08,03,43,6.40
2012,06,08,03,44,6.40
2012,06,08,03,45,6.40
2012,06,08,03,46,6.40
2012,06,08,03,47,6.40
2012,06,08,03,48,6.40
2012,06,08,03,49,6.40
2012,06,08,03,50,6.40
2012,06,08,03,51,6.40
2012,06,08,03,52,6.40
2012,06,08,03,53,6.40
2012,06,08,03,54,6.40
2012,06,08,03,55,6.40
2012,06,08,03,56,6.40
2012,06,08,03,57,6.40
2012,06,08,03,58,6.40
2012,06,08,03,59,6.40
2012,06,08,04,00,6.40
2012,06,08,04,01,6.40
2012,06,08,04,02,6.40
2012,06,08,04,03,6.50
2012,06,08,04,04,6.50
2012,06,08,04,05,6.50
2012,06,08,04,06,6.50
2012,06,08,04,07,6.50
2012,06,08,04,08,6.50
2012,06,08,04,09,6.60
2012,06,08,04,10,6.60
2012,06,08,04,11,6.60
2012,06,08,04,12,6.60
2012,06,08,04,13,6.60
2012,06,08,04,14,6.60
2012,06,08,04,15,6.60
2012,06,08,04,16,6.50
2012,06,08,04,17,6.50
2012,06,08,04,18,6.50
2012,06,08,04,19,6.50
2012,06,08,04,20,6.50
2012,06,08,04,21,6.50
2012,06,08,04,22,6.50
2012,06,08,04,23,6.50
2012,06,08,04,24,6.50
2012,06,08,04,25,6.50
2012,06,08,04,26,6.50
2012,06,08,04,27,6.50
2012,06,08,04,28,6.50
2012,06,08,04,29,6.50
2012,06,08,04,30,6.50
2012,06,08,04,31,6.50
2012,06,08,04,32,6.50
2012,06,08,04,33,6.50
2012,06,08,04,34,6.50
2012,06,08,04,35,6.50
2012,06,08,04,36,6.50
2012,06,08,04,37,6.50
2012,06,08,04,38,6.40
2012,06,08,04,39,6.40
2012,06,08,04,40,6.50
2012,06,08,04,41,6.40
2012,06,08,04,42,6.40
2012,06,08,04,43,6.40
2012,06,08,04,44,6.40
2012,06,08,04,45,6.40
2012,06,08,04,46,6.40
2012,06,08,04,47,6.40
2012,06,08,04,48,6.40
2012,06,08,04,49,6.40
2012,06,08,04,50,6.40
2012,06,08,04,51,6.40
2012,06,08,04,52,6.40
2012,06,08,04,53,6.40
2012,06,08,04,54,6.40
2012,06,08,04,55,6.40
2012,06,08,04,56,6.40
2012,06,08,04,57,6.40
2012,06,08,04,58,6.40
2012,06,08,04,59,6.40
2012,06,08,05,00,6.40
2012,06,08,05,01,6.40
2012,06,08,05,02,6.40
2012,06,08,05,03,6.40
2012,06,08,05,04,6.40
2012,06,08,05,05,6.30
2012,06,08,05,06,6.30
2012,06,08,05,07,6.30
2012,06,08,05,08,6.30
2012,06,08,05,09,6.30
2012,06,08,05,10,6.30
2012,06,08,05,11,6.30
2012,06,08,05,12,6.30
2012,06,08,05,13,6.30
2012,06,08,05,14,6.20
2012,06,08,05,15,6.20
2012,06,08,05,16,6.20
2012,06,08,05,17,6.20
2012,06,08,05,18,6.20
2012,06,08,05,19,6.20
2012,06,08,05,20,6.20
2012,06,08,05,21,6.20
2012,06,08,05,22,6.20
2012,06,08,05,23,6.20
2012,06,08,05,24,6.20
2012,06,08,05,25,6.20
2012,06,08,05,26,6.20
2012,06,08,05,27,6.20
2012,06,08,05,28,6.20
2012,06,08,05,29,6.20
2012,06,08,05,30,6.10
2012,06,08,05,31,6.10
2012,06,08,05,32,6.10
2012,06,08,05,33,6.10
2012,06,08,05,34,6.10
2012,06,08,05,35,6.10
2012,06,08,05,36,6.10
2012,06,08,05,37,6.10
2012,06,08,05,38,6.10
2012,06,08,05,39,6.10
2012,06,08,05,40,6.10
2012,06,08,05,41,6.10
2012,06,08,05,42,6.10
2012,06,08,05,43,6.10
2012,06,08,05,44,6.10
2012,06,08,05,45,6.10
2012,06,08,05,46,6.10
2012,06,08,05,47,6.10
2012,06,08,05,48,6.10
2012,06,08,05,49,6.10
2012,06,08,05,50,6.10
2012,06,08,05,51,6.10
2012,06,08,05,52,6.10
2012,06,08,05,53,6.10
2012,06,08,05,54,6.10
2012,06,08,05,55,6.20
2012,06,08,05,56,6.20
2012,06,08,05,57,6.20
2012,06,08,05,58,6.20
2012,06,08,05,59,6.20
2012,06,08,06,00,6.20
2012,06,08,06,01,6.20
2012,06,08,06,02,6.20
2012,06,08,06,03,6.30
2012,06,08,06,04,6.30
2012,06,08,06,05,6.30
2012,06,08,06,06,6.30
2012,06,08,06,07,6.30
2012,06,08,06,08,6.30
2012,06,08,06,09,6.30
2012,06,08,06,10,6.30
2012,06,08,06,11,6.40
2012,06,08,06,12,6.40
2012,06,08,06,13,6.40
2012,06,08,06,14,6.40
2012,06,08,06,15,6.40
2012,06,08,06,16,6.50
2012,06,08,06,17,6.50
2012,06,08,06,18,6.50
2012,06,08,06,19,6.50
2012,06,08,06,20,6.60
2012,06,08,06,21,6.60
2012,06,08,06,22,6.60
2012,06,08,06,23,6.60
2012,06,08,06,24,6.60
2012,06,08,06,25,6.60
2012,06,08,06,26,6.70
2012,06,08,06,27,6.70
2012,06,08,06,28,6.70
2012,06,08,06,29,6.70
2012,06,08,06,30,6.70
2012,06,08,06,31,6.70
2012,06,08,06,32,6.70
2012,06,08,06,33,6.80
2012,06,08,06,34,6.80
2012,06,08,06,35,6.80
2012,06,08,06,36,6.80
2012,06,08,06,37,6.80
2012,06,08,06,38,6.80
2012,06,08,06,39,6.80
2012,06,08,06,40,6.80
2012,06,08,06,41,6.80
2012,06,08,06,42,6.80
2012,06,08,06,43,6.90
2012,06,08,06,44,6.90
2012,06,08,06,45,6.90
2012,06,08,06,46,6.90
2012,06,08,06,47,6.90
2012,06,08,06,48,6.90
2012,06,08,06,49,7.00
2012,06,08,06,50,7.00
2012,06,08,06,51,7.00
2012,06,08,06,52,7.00
2012,06,08,06,53,7.00
2012,06,08,06,54,7.00
2012,06,08,06,55,7.00
2012,06,08,06,56,7.00
2012,06,08,06,57,7.10
2012,06,08,06,58,7.10
2012,06,08,06,59,7.10
2012,06,08,07,00,7.10
2012,06,08,07,01,7.20
2012,06,08,07,02,7.20
2012,06,08,07,03,7.20
2012,06,08,07,04,7.20
2012,06,08,07,05,7.20
2012,06,08,07,06,7.20
2012,06,08,07,07,7.20
2012,06,08,07,08,7.20
2012,06,08,07,09,7.20
2012,06,08,07,10,7.20
2012,06,08,07,11,7.20
2012,06,08,07,12,7.20
2012,06,08,07,13,7.20
2012,06,08,07,14,7.20
2012,06,08,07,15,7.20
2012,06,08,07,16,7.20
2012,06,08,07,17,7.20
2012,06,08,07,18,7.20
2012,06,08,07,19,7.30
2012,06,08,07,20,7.30
2012,06,08,07,21,7.30
2012,06,08,07,22,7.30
2012,06,08,07,23,7.30
2012,06,08,07,24,7.30
2012,06,08,07,25,7.30
2012,06,08,07,26,7.30
2012,06,08,07,27,7.30
2012,06,08,07,28,7.30
2012,06,08,07,29,7.40
2012,06,08,07,30,7.40
2012,06,08,07,31,7.40
2012,06,08,07,32,7.40
2012,06,08,07,33,7.40
2012,06,08,07,34,7.40
2012,06,08,07,35,7.40
2012,06,08,07,36,7.40
2012,06,08,07,37,7.40
2012,06,08,07,38,7.40
2012,06,08,07,39,7.40
2012,06,08,07,40,7.40
2012,06,08,07,41,7.40
2012,06,08,07,42,7.40
2012,06,08,07,43,7.40
2012,06,08,07,44,7.50
2012,06,08,07,45,7.50
2012,06,08,07,46,7.50
2012,06,08,07,47,7.50
2012,06,08,07,48,7.50
2012,06,08,07,49,7.50
2012,06,08,07,50,7.50
2012,06,08,07,51,7.50
2012,06,08,07,52,7.50
2012,06,08,07,53,7.50
2012,06,08,07,54,7.50
2012,06,08,07,55,7.60
2012,06,08,07,56,7.60
2012,06,08,07,57,7.60
2012,06,08,07,58,7.60
2012,06,08,07,59,7.60
2012,06,08,08,00,7.60
2012,06,08,08,01,7.70
2012,06,08,08,02,7.70
2012,06,08,08,03,7.70
2012,06,08,08,04,7.70
2012,06,08,08,05,7.80
2012,06,08,08,06,7.80
2012,06,08,08,07,7.80
2012,06,08,08,08,7.80
2012,06,08,08,09,7.90
2012,06,08,08,10,7.90
2012,06,08,08,11,7.90
2012,06,08,08,12,7.90
2012,06,08,08,13,7.90
2012,06,08,08,14,7.90
2012,06,08,08,15,7.90
2012,06,08,08,16,8.00
2012,06,08,08,17,8.00
2012,06,08,08,18,8.00
2012,06,08,08,19,8.10
2012,06,08,08,20,8.10
2012,06,08,08,21,8.10
2012,06,08,08,22,8.10
2012,06,08,08,23,8.10
2012,06,08,08,24,8.10
2012,06,08,08,25,8.10
2012,06,08,08,26,8.10
2012,06,08,08,27,8.10
2012,06,08,08,28,8.10
2012,06,08,08,29,8.10
2012,06,08,08,30,8.10
2012,06,08,08,31,8.10
2012,06,08,08,32,8.10
2012,06,08,08,33,8.10
2012,06,08,08,34,8.10
2012,06,08,08,35,8.20
2012,06,08,08,36,8.20
2012,06,08,08,37,8.30
2012,06,08,08,38,8.30
2012,06,08,08,39,8.30
2012,06,08,08,40,8.30
2012,06,08,08,41,8.30
2012,06,08,08,42,8.30
2012,06,08,08,43,8.40
2012,06,08,08,44,8.40
2012,06,08,08,45,8.50
2012,06,08,08,46,8.50
2012,06,08,08,47,8.50
2012,06,08,08,48,8.60
2012,06,08,08,49,8.60
2012,06,08,08,50,8.60
2012,06,08,08,51,8.70
2012,06,08,08,52,8.80
2012,06,08,08,53,8.80
2012,06,08,08,54,8.80
2012,06,08,08,55,8.80
2012,06,08,08,56,8.90
2012,06,08,08,57,8.90
2012,06,08,08,58,9.00
2012,06,08,08,59,9.00
2012,06,08,09,00,9.00
2012,06,08,09,01,9.00
2012,06,08,09,02,9.10
2012,06,08,09,03,9.10
2012,06,08,09,04,9.00
2012,06,08,09,05,9.00
2012,06,08,09,06,8.90
2012,06,08,09,07,8.90
2012,06,08,09,08,8.90
2012,06,08,09,09,9.00
2012,06,08,09,10,9.00
2012,06,08,09,11,8.90
2012,06,08,09,12,8.90
2012,06,08,09,13,9.00
2012,06,08,09,14,9.00
2012,06,08,09,15,9.00
2012,06,08,09,16,9.00
2012,06,08,09,17,9.10
2012,06,08,09,18,9.10
2012,06,08,09,19,9.10
2012,06,08,09,20,9.20
2012,06,08,09,21,9.20
2012,06,08,09,22,9.20
2012,06,08,09,23,9.20
2012,06,08,09,24,9.30
2012,06,08,09,25,9.30
2012,06,08,09,26,9.30
2012,06,08,09,27,9.40
2012,06,08,09,28,9.40
2012,06,08,09,29,9.50
2012,06,08,09,30,9.50
2012,06,08,09,31,9.60
2012,06,08,09,32,9.60
2012,06,08,09,33,9.60
2012,06,08,09,34,9.70
2012,06,08,09,35,9.80
2012,06,08,09,36,9.80
2012,06,08,09,37,9.90
2012,06,08,09,38,10.00
2012,06,08,09,39,10.00
2012,06,08,09,40,10.00
2012,06,08,09,41,10.00
2012,06,08,09,42,10.00
2012,06,08,09,43,10.10
2012,06,08,09,44,10.10
2012,06,08,09,45,10.10
2012,06,08,09,46,10.10
2012,06,08,09,47,10.10
2012,06,08,09,48,10.00
2012,06,08,09,49,10.00
2012,06,08,09,50,9.90
2012,06,08,09,51,9.90
2012,06,08,09,52,9.90
2012,06,08,09,53,9.90
2012,06,08,09,54,10.00
2012,06,08,09,55,10.00
2012,06,08,09,56,10.10
2012,06,08,09,57,10.10
2012,06,08,09,58,10.10
2012,06,08,09,59,10.00
2012,06,08,10,00,10.00
2012,06,08,10,01,10.00
2012,06,08,10,02,10.00
2012,06,08,10,03,10.10
2012,06,08,10,04,10.10
2012,06,08,10,05,10.10
2012,06,08,10,06,10.20
2012,06,08,10,07,10.20
2012,06,08,10,08,10.20
2012,06,08,10,09,10.30
2012,06,08,10,10,10.30
2012,06,08,10,11,10.40
2012,06,08,10,12,10.40
2012,06,08,10,13,10.40
2012,06,08,10,14,10.40
2012,06,08,10,15,10.40
2012,06,08,10,16,10.40
2012,06,08,10,17,10.50
2012,06,08,10,18,10.50
2012,06,08,10,19,10.50
2012,06,08,10,20,10.60
2012,06,08,10,21,10.60
2012,06,08,10,22,10.60
2012,06,08,10,23,10.60
2012,06,08,10,24,10.60
2012,06,08,10,25,10.60
2012,06,08,10,26,10.60
2012,06,08,10,27,10.50
2012,06,08,10,28,10.50
2012,06,08,10,29,10.50
2012,06,08,10,30,10.60
2012,06,08,10,31,10.60
2012,06,08,10,32,10.60
2012,06,08,10,33,10.60
2012,06,08,10,34,10.70
2012,06,08,10,35,10.60
2012,06,08,10,36,10.60
2012,06,08,10,37,10.50
2012,06,08,10,38,10.50
2012,06,08,10,39,10.50
2012,06,08,10,40,10.50
2012,06,08,10,41,10.50
2012,06,08,10,42,10.50
2012,06,08,10,43,10.50
2012,06,08,10,44,10.50
2012,06,08,10,45,10.50
2012,06,08,10,46,10.50
2012,06,08,10,47,10.50
2012,06,08,10,48,10.40
2012,06,08,10,49,10.50
2012,06,08,10,50,10.50
2012,06,08,10,51,10.60
2012,06,08,10,52,10.60
2012,06,08,10,53,10.60
2012,06,08,10,54,10.70
2012,06,08,10,55,10.70
2012,06,08,10,56,10.70
2012,06,08,10,57,10.70
2012,06,08,10,58,10.60
2012,06,08,10,59,10.50
2012,06,08,11,00,10.40
2012,06,08,11,01,10.40
2012,06,08,11,02,10.40
2012,06,08,11,03,10.40
2012,06,08,11,04,10.50
2012,06,08,11,05,10.60
2012,06,08,11,06,10.60
2012,06,08,11,07,10.70
2012,06,08,11,08,10.70
2012,06,08,11,09,10.70
2012,06,08,11,10,10.80
2012,06,08,11,11,10.80
2012,06,08,11,12,10.90
2012,06,08,11,13,11.00
2012,06,08,11,14,11.00
2012,06,08,11,15,11.10
2012,06,08,11,16,11.10
2012,06,08,11,17,11.10
2012,06,08,11,18,11.10
2012,06,08,11,19,11.10
2012,06,08,11,20,11.10
2012,06,08,11,21,11.20
2012,06,08,11,22,11.20
2012,06,08,11,23,11.30
2012,06,08,11,24,11.40
2012,06,08,11,25,11.60
2012,06,08,11,26,11.60
2012,06,08,11,27,11.70
2012,06,08,11,28,11.70
2012,06,08,11,29,11.70
2012,06,08,11,30,11.80
2012,06,08,11,31,11.90
2012,06,08,11,32,11.90
2012,06,08,11,33,12.00
2012,06,08,11,34,12.10
2012,06,08,11,35,12.00
2012,06,08,11,36,11.90
2012,06,08,11,37,11.90
2012,06,08,11,38,11.80
2012,06,08,11,39,11.80
2012,06,08,11,40,11.90
2012,06,08,11,41,11.90
2012,06,08,11,42,11.90
2012,06,08,11,43,11.90
2012,06,08,11,44,11.90
2012,06,08,11,45,11.80
2012,06,08,11,46,11.80
2012,06,08,11,47,11.90
2012,06,08,11,48,11.80
2012,06,08,11,49,11.80
2012,06,08,11,50,11.80
2012,06,08,11,51,11.80
2012,06,08,11,52,11.90
2012,06,08,11,53,12.00
2012,06,08,11,54,12.10
2012,06,08,11,55,12.20
2012,06,08,11,56,12.30
2012,06,08,11,57,12.40
2012,06,08,11,58,12.50
2012,06,08,11,59,12.60
2012,06,08,12,00,12.60
2012,06,08,12,01,12.70
2012,06,08,12,02,12.70
2012,06,08,12,03,12.70
2012,06,08,12,04,12.70
2012,06,08,12,05,12.70
2012,06,08,12,06,12.70
2012,06,08,12,07,12.60
2012,06,08,12,08,12.60
2012,06,08,12,09,12.50
2012,06,08,12,10,12.60
2012,06,08,12,11,12.60
2012,06,08,12,12,12.70
2012,06,08,12,13,12.80
2012,06,08,12,14,12.90
2012,06,08,12,15,12.90
2012,06,08,12,16,12.90
2012,06,08,12,17,12.90
2012,06,08,12,18,12.90
2012,06,08,12,19,12.90
2012,06,08,12,20,12.90
2012,06,08,12,21,13.00
2012,06,08,12,22,13.20
2012,06,08,12,23,13.20
2012,06,08,12,24,13.30
2012,06,08,12,25,13.40
2012,06,08,12,26,13.50
2012,06,08,12,27,13.40
2012,06,08,12,28,13.30
2012,06,08,12,29,13.20
2012,06,08,12,30,13.20
2012,06,08,12,31,13.10
2012,06,08,12,32,13.00
2012,06,08,12,33,13.00
2012,06,08,12,34,12.90
2012,06,08,12,35,12.90
2012,06,08,12,36,12.90
2012,06,08,12,37,12.90
2012,06,08,12,38,13.00
2012,06,08,12,39,13.10
2012,06,08,12,40,13.20
2012,06,08,12,41,13.20
2012,06,08,12,42,13.30
2012,06,08,12,43,13.30
2012,06,08,12,44,13.30
2012,06,08,12,45,13.30
2012,06,08,12,46,13.30
2012,06,08,12,47,13.30
2012,06,08,12,48,13.20
2012,06,08,12,49,13.20
2012,06,08,12,50,13.20
2012,06,08,12,51,13.10
2012,06,08,12,52,13.10
2012,06,08,12,53,13.10
2012,06,08,12,54,13.00
2012,06,08,12,55,13.00
2012,06,08,12,56,12.90
2012,06,08,12,57,12.90
2012,06,08,12,58,12.80
2012,06,08,12,59,12.80
2012,06,08,13,00,12.80
2012,06,08,13,01,12.70
2012,06,08,13,02,12.70
2012,06,08,13,03,12.60
2012,06,08,13,04,12.50
2012,06,08,13,05,12.50
2012,06,08,13,06,12.40
2012,06,08,13,07,12.40
2012,06,08,13,08,12.30
2012,06,08,13,09,12.30
2012,06,08,13,10,12.30
2012,06,08,13,11,12.20
2012,06,08,13,12,12.20
2012,06,08,13,13,12.20
2012,06,08,13,14,12.20
2012,06,08,13,15,12.20
2012,06,08,13,16,12.20
2012,06,08,13,17,12.10
2012,06,08,13,18,12.10
2012,06,08,13,19,12.10
2012,06,08,13,20,12.10
2012,06,08,13,21,12.10
2012,06,08,13,22,12.20
2012,06,08,13,23,12.10
2012,06,08,13,24,12.10
2012,06,08,13,25,12.00
2012,06,08,13,26,12.00
2012,06,08,13,27,12.00
2012,06,08,13,28,12.00
2012,06,08,13,29,12.00
2012,06,08,13,30,11.90
2012,06,08,13,31,11.90
2012,06,08,13,32,11.90
2012,06,08,13,33,11.90
2012,06,08,13,34,11.90
2012,06,08,13,35,11.90
2012,06,08,13,36,12.00
2012,06,08,13,37,12.00
2012,06,08,13,38,11.90
2012,06,08,13,39,11.90
2012,06,08,13,40,11.90
2012,06,08,13,41,11.90
2012,06,08,13,42,11.90
2012,06,08,13,43,11.90
2012,06,08,13,44,11.90
2012,06,08,13,45,11.90
2012,06,08,13,46,12.00
2012,06,08,13,47,12.00
2012,06,08,13,48,12.10
2012,06,08,13,49,12.10
2012,06,08,13,50,12.20
2012,06,08,13,51,12.20
2012,06,08,13,52,12.20
2012,06,08,13,53,12.20
2012,06,08,13,54,12.20
2012,06,08,13,55,12.30
2012,06,08,13,56,12.30
2012,06,08,13,57,12.30
2012,06,08,13,58,12.40
2012,06,08,13,59,12.50
2012,06,08,14,00,12.50
2012,06,08,14,01,12.60
2012,06,08,14,02,12.70
2012,06,08,14,03,12.70
2012,06,08,14,04,12.80
2012,06,08,14,05,12.80
2012,06,08,14,06,12.90
2012,06,08,14,07,12.90
2012,06,08,14,08,13.00
2012,06,08,14,09,13.00
2012,06,08,14,10,13.10
2012,06,08,14,11,13.10
2012,06,08,14,12,13.10
2012,06,08,14,13,13.20
2012,06,08,14,14,13.20
2012,06,08,14,15,13.10
2012,06,08,14,16,13.10
2012,06,08,14,17,13.10
2012,06,08,14,18,13.10
2012,06,08,14,19,13.20
2012,06,08,14,20,13.20
2012,06,08,14,21,13.20
2012,06,08,14,22,13.30
2012,06,08,14,23,13.30
2012,06,08,14,24,13.30
2012,06,08,14,25,13.40
2012,06,08,14,26,13.40
2012,06,08,14,27,13.40
2012,06,08,14,28,13.40
2012,06,08,14,29,13.30
2012,06,08,14,30,13.30
2012,06,08,14,31,13.20
2012,06,08,14,32,13.20
2012,06,08,14,33,13.10
2012,06,08,14,34,13.10
2012,06,08,14,35,13.00
2012,06,08,14,36,12.90
2012,06,08,14,37,12.80
2012,06,08,14,38,12.80
2012,06,08,14,39,12.70
2012,06,08,14,40,12.70
2012,06,08,14,41,12.70
2012,06,08,14,42,12.70
2012,06,08,14,43,12.70
2012,06,08,14,44,12.70
2012,06,08,14,45,12.70
2012,06,08,14,46,12.60
2012,06,08,14,47,12.60
2012,06,08,14,48,12.50
2012,06,08,14,49,12.50
2012,06,08,14,50,12.40
2012,06,08,14,51,12.40
2012,06,08,14,52,12.40
2012,06,08,14,53,12.30
2012,06,08,14,54,12.30
2012,06,08,14,55,12.30
2012,06,08,14,56,12.40
2012,06,08,14,57,12.40
2012,06,08,14,58,12.40
2012,06,08,14,59,12.40
2012,06,08,15,00,12.40
2012,06,08,15,01,12.40
2012,06,08,15,02,12.40
2012,06,08,15,03,12.50
2012,06,08,15,04,12.50
2012,06,08,15,05,12.60
2012,06,08,15,06,12.60
2012,06,08,15,07,12.60
2012,06,08,15,08,12.70
2012,06,08,15,09,12.70
2012,06,08,15,10,12.80
2012,06,08,15,11,12.70
2012,06,08,15,12,12.70
2012,06,08,15,13,12.60
2012,06,08,15,14,12.60
2012,06,08,15,15,12.50
2012,06,08,15,16,12.40
2012,06,08,15,17,12.40
2012,06,08,15,18,12.30
2012,06,08,15,19,12.30
2012,06,08,15,20,12.30
2012,06,08,15,21,12.30
2012,06,08,15,22,12.20
2012,06,08,15,23,12.20
2012,06,08,15,24,12.20
2012,06,08,15,25,12.10
2012,06,08,15,26,12.10
2012,06,08,15,27,12.00
2012,06,08,15,28,12.00
2012,06,08,15,29,11.90
2012,06,08,15,30,11.90
2012,06,08,15,31,11.80
2012,06,08,15,32,11.80
2012,06,08,15,33,11.70
2012,06,08,15,34,11.70
2012,06,08,15,35,11.60
2012,06,08,15,36,11.60
2012,06,08,15,37,11.60
2012,06,08,15,38,11.50
2012,06,08,15,39,11.50
2012,06,08,15,40,11.50
2012,06,08,15,41,11.40
2012,06,08,15,42,11.40
2012,06,08,15,43,11.40
2012,06,08,15,44,11.30
2012,06,08,15,45,11.30
2012,06,08,15,46,11.30
2012,06,08,15,47,11.30
2012,06,08,15,48,11.30
2012,06,08,15,49,11.20
2012,06,08,15,50,11.20
2012,06,08,15,51,11.20
2012,06,08,15,52,11.20
2012,06,08,15,53,11.10
2012,06,08,15,54,11.00
2012,06,08,15,55,11.00
2012,06,08,15,56,10.90
2012,06,08,15,57,10.80
2012,06,08,15,58,10.80
2012,06,08,15,59,10.70
2012,06,08,16,00,10.70
2012,06,08,16,01,10.60
2012,06,08,16,02,10.50
2012,06,08,16,03,10.50
2012,06,08,16,04,10.40
2012,06,08,16,05,10.30
2012,06,08,16,06,10.30
2012,06,08,16,07,10.30
2012,06,08,16,08,10.30
2012,06,08,16,09,10.20
2012,06,08,16,10,10.20
2012,06,08,16,11,10.20
2012,06,08,16,12,10.10
2012,06,08,16,13,10.10
2012,06,08,16,14,10.10
2012,06,08,16,15,10.10
2012,06,08,16,16,10.10
2012,06,08,16,17,10.00
2012,06,08,16,18,10.00
2012,06,08,16,19,9.90
2012,06,08,16,20,9.90
2012,06,08,16,21,9.90
2012,06,08,16,22,9.90
2012,06,08,16,23,9.90
2012,06,08,16,24,9.90
2012,06,08,16,25,9.90
2012,06,08,16,26,9.90
2012,06,08,16,27,10.00
2012,06,08,16,28,10.00
2012,06,08,16,29,10.00
2012,06,08,16,30,10.10
2012,06,08,16,31,10.10
2012,06,08,16,32,10.10
2012,06,08,16,33,10.10
2012,06,08,16,34,10.10
2012,06,08,16,35,10.10
2012,06,08,16,36,10.10
2012,06,08,16,37,10.10
2012,06,08,16,38,10.10
2012,06,08,16,39,10.10
2012,06,08,16,40,10.10
2012,06,08,16,41,10.00
2012,06,08,16,42,10.00
2012,06,08,16,43,10.00
2012,06,08,16,44,10.00
2012,06,08,16,45,10.10
2012,06,08,16,46,10.10
2012,06,08,16,47,10.10
2012,06,08,16,48,10.10
2012,06,08,16,49,10.10
2012,06,08,16,50,10.20
2012,06,08,16,51,10.30
2012,06,08,16,52,10.30
2012,06,08,16,53,10.40
2012,06,08,16,54,10.40
2012,06,08,16,55,10.40
2012,06,08,16,56,10.50
2012,06,08,16,57,10.40
2012,06,08,16,58,10.50
2012,06,08,16,59,10.50
2012,06,08,17,00,10.50
2012,06,08,17,01,10.50
2012,06,08,17,02,10.60
2012,06,08,17,03,10.60
2012,06,08,17,04,10.60
2012,06,08,17,05,10.70
2012,06,08,17,06,10.70
2012,06,08,17,07,10.80
2012,06,08,17,08,10.80
2012,06,08,17,09,10.80
2012,06,08,17,10,10.90
2012,06,08,17,11,10.90
2012,06,08,17,12,10.90
2012,06,08,17,13,10.90
2012,06,08,17,14,11.00
2012,06,08,17,15,11.00
2012,06,08,17,16,11.10
2012,06,08,17,17,11.10
2012,06,08,17,18,11.10
2012,06,08,17,19,11.20
2012,06,08,17,20,11.20
2012,06,08,17,21,11.30
2012,06,08,17,22,11.30
2012,06,08,17,23,11.40
2012,06,08,17,24,11.40
2012,06,08,17,25,11.40
2012,06,08,17,26,11.40
2012,06,08,17,27,11.40
2012,06,08,17,28,11.50
2012,06,08,17,29,11.50
2012,06,08,17,30,11.60
2012,06,08,17,31,11.60
2012,06,08,17,32,11.60
2012,06,08,17,33,11.60
2012,06,08,17,34,11.60
2012,06,08,17,35,11.70
2012,06,08,17,36,11.70
2012,06,08,17,37,11.70
2012,06,08,17,38,11.80
2012,06,08,17,39,11.80
2012,06,08,17,40,11.80
2012,06,08,17,41,11.80
2012,06,08,17,42,11.80
2012,06,08,17,43,11.80
2012,06,08,17,44,11.80
2012,06,08,17,45,11.80